Regional Weather Roundup
Issued by NWS

Home | Current Version | Previous Version | Graphics & Text | Print | Product List | Glossary On
Versions: 1 2 3 4 5 6 7 8 9 10 11 12 13 14 15 16 17 18 19 20 21 22 23 24 25 26 27 28 29 30 31 32 33 34 35 36 37 38 39 40 41 42 43 44 45 46 47 48 49 50
000
ASUS43 KLOT 240603
RWRIL

ILLINOIS REGIONAL WEATHER ROUNDUP
NATIONAL WEATHER SERVICE CHICAGO/ROMEOVILLE IL
1200 AM CST FRI NOV 24 2017

NOTE: "FAIR" INDICATES FEW OR NO CLOUDS BELOW 12,000 FEET WITH NO
SIGNIFICANT WEATHER AND/OR OBSTRUCTIONS TO VISIBILITY.

* THESE STATIONS ARE NOT UNDER NWS QUALITY CONTROL. THEY ALSO MAY NOT
  REPORT WEATHER SUCH AS PRECIPITATION OR FOG.

ILZ001-002-007-009-015-016-024-240700-
NORTHWEST ILLINOIS

CITY           SKY/WX    TMP DP  RH WIND       PRES   REMARKS
MOLINE         CLEAR     37  27  67 S5        29.85  WCI  33
6HR MIN TEMP:  30; 6HR MAX TEMP:  38;

STERLING*      CLEAR     34  27  75 CALM      29.87F
SAVANNA*       CLEAR     31  27  84 S5        29.84F WCI  26
$$

ILZ003-004-008-010-011-017-018-240700-
NORTH CENTRAL ILLINOIS

CITY           SKY/WX    TMP DP  RH WIND       PRES   REMARKS
ROCKFORD       CLEAR     33  25  72 S6        29.87F WCI  28
6HR MIN TEMP:  29; 6HR MAX TEMP:  39;

FREEPORT*      CLEAR     34  27  76 S10       29.86F WCI  26
ROCHELLE*      CLEAR     30  27  86 S8        29.86F WCI  23
DE KALB*       CLEAR     28  25  88 S7        29.86F WCI  21
PERU*          CLOUDY    33  25  74 S6        29.89F WCI  27
$$

ILZ005-006-012>014-019>023-240700-
NORTHEAST ILLINOIS

CITY           SKY/WX    TMP DP  RH WIND       PRES   REMARKS
CHICAGO-OHARE  CLEAR     34  26  72 S5        29.87F WCI  30
6HR MIN TEMP:  34; 6HR MAX TEMP:  40;

CHICAGO-MIDWAY NOT AVBL
AURORA         CLEAR     28  24  85 S3        29.88F
6HR MIN TEMP:  27; 6HR MAX TEMP:  34;

LANSING*       CLEAR     32  29  90 S3        29.91F
JOLIET*        CLEAR     29  27  93 CALM      29.90F
WAUKEGAN       CLEAR     34  26  72 SW7       29.85F WCI  28
6HR MIN TEMP:  30; 6HR MAX TEMP:  36;

DUPAGE AIRPORT CLEAR     29  25  85 S6        29.87F WCI  23
6HR MIN TEMP:  29; 6HR MAX TEMP:  36;

KANKAKEE*      CLEAR     32  27  82 SW6       29.92F WCI  27
WHEELING       CLEAR     31  26  82 S6        29.89F WCI  25
6HR MIN TEMP:  29; 6HR MAX TEMP:  39;

MORRIS*        CLEAR     33  26  77 S3        29.89F
ROMEOVILLE*    CLEAR     31  27  87 S5        29.89F WCI  26
NORTHERLY ISL    N/A     39  26  60 SW5         N/A
$$

LMZ740>746-240700-
SOUTHERN LAKE MICHIGAN

STATION/POSITION SKY/WX   TEMP    WIND        PRES    VSBY  WAVE
                          AIR SEA DIR/SP/G                  HT/PER
                          (F)     (DEG/KT/KT) (MB)    (MI)  (FT/S)
SOUTHERN BUOY              44 47  240/ 14/ 16 1012.2
HARRISON CRIB              41     200/ 12/ 13   N/A
BURNHAM HARBOR             38     170/  4/  7   N/A
CALUMET HARBOR             35     170/  4/  5 1012.0F
BURNS HARBOR               36     190/ 10/ 12 1013.2F
MICHIGAN CITY              37     170/ 13/ 16   N/A
$$

ILZ025>027-034>036-040-047-049-050-058-095>099-240700-
WEST-CENTRAL ILLINOIS

CITY           SKY/WX    TMP DP  RH WIND       PRES   REMARKS
QUINCY         CLEAR     41  30  65 S7        29.88F
GALESBURG*     CLEAR     35  30  82 S7        29.89F WCI  29
MACOMB*        CLOUDY    35  30  81 S7        29.92S WCI  29
JACKSONVILLE*  CLEAR     36  28  75 S3        29.92F
PITTSFIELD*    CLEAR     35  29  79 S6        29.92F WCI  30
$$

ILZ028>032-037-038-041>044-048-051>054-059>061-240700-
CENTRAL ILLINOIS

CITY           SKY/WX    TMP DP  RH WIND       PRES   REMARKS
PONTIAC        CLEAR     29  28  96 CALM      29.91S
BLOOMINGTON    CLEAR     33  27  78 SW7       29.91F WCI  27
DECATUR        CLEAR     34  26  72 S6        29.92F WCI  29
PEORIA         CLEAR     33  27  78 CALM      29.90F
6HR MIN TEMP:  32; 6HR MAX TEMP:  40;

LACON*         CLOUDY    34  28  77 S3        29.88F
LINCOLN*       CLEAR     33  29  83 CALM      29.92F
SPRINGFIELD    CLEAR     33  28  81 S3        29.93F
6HR MIN TEMP:  31; 6HR MAX TEMP:  43;

TAYLORVILLE    CLEAR     35  27  74 S8        29.94S WCI  28
6HR MIN TEMP:  33; 6HR MAX TEMP:  43;

$$

ILZ033-039-045-046-055>057-062-063-240700-
EAST-CENTRAL ILLINOIS

CITY           SKY/WX    TMP DP  RH WIND       PRES   REMARKS
CHAMPAIGN      CLEAR     34  27  75 S10       29.93F WCI  26
DANVILLE*      CLEAR     33  25  71 S6        29.92F WCI  28
RANTOUL*       CLEAR     34  30  85 S5        29.92F WCI  30
MATTOON        CLEAR     37  26  64 S8        29.94F WCI  31
PARIS*         CLEAR     33  27  77 S9        29.96F WCI  26
$$

ILZ079-100>102-240700-
SOUTHWEST ILLINOIS

CITY           SKY/WX    TMP DP  RH WIND       PRES   REMARKS
ALTON          CLEAR     32  28  86 CALM      29.94F
BELLEVILLE     CLEAR     32  26  80 CALM      29.94F
CAHOKIA*       CLEAR     29  25  85 S3        29.95F
SPARTA*        CLEAR     40  28  63 S3        29.97F
$$

ILZ064>066-069>071-074>076-080>082-084>086-088>090-092>094-240700-
SOUTH-CENTRAL ILLINOIS

CITY           SKY/WX    TMP DP  RH WIND       PRES   REMARKS
CARBONDALE     CLEAR     38  29  70 S6        29.98F WCI  33
6HR MIN TEMP:  35; 6HR MAX TEMP:  43;

CAIRO*         CLEAR     31  27  85 CALM      30.01F
EFFINGHAM*     CLEAR     32  26  80 SE3       29.98F
MARION         CLEAR     38  29  71 S6        29.99F WCI  33
MT. VERNON     CLEAR     29  26  89 CALM      29.97F
CENTRALIA*     CLEAR     37  29  74 S5        29.96F WCI  33
SALEM*         CLEAR     39  27  62 S3        29.96F
METROPOLIS*    CLEAR     31  27  84 CALM      30.02S
$$

ILZ067-068-072-073-078-083-087-091-240700-
SOUTHEAST ILLINOIS

CITY           SKY/WX    TMP DP  RH WIND       PRES   REMARKS
LAWRENCEVILLE  CLEAR     34  25  69 S5        29.99F WCI  30
FLORA*         CLEAR     32  26  77 CALM      29.98F
FAIRFIELD*     CLEAR     37  26  63 CALM      29.97F
HARRISBURG*    CLEAR     32  26  80 CALM      30.00F
ROBINSON*      CLEAR     31  24  74 S5        30.00F WCI  27
CARMI*         CLEAR     30  26  83 SE5       30.00S WCI  25
$$

ABBREVIATIONS USED IN REMARKS
   TC - TEMPERATURE IN CELSIUS
  WCI - WIND CHILL INDEX
   HX - HEAT INDEX
  VSB - VISIBILITY
$$




USA.gov is the U.S. government's official web portal to all federal, state and local government web resources and services.